Location: ???????
(54.6339°N, 39.4245°E)
Time: 02:28:32
(UTC+00:00)

CZ-2C R/B - Pass Details

Date: 19 May 2025
Orbit: 782 x 867 km, 98.4° (Epoch: 13 June)

Event Time Altitude Azimuth Distance (km) Brightness Sun altitude
Exits shadow 22:36:29 18° 181° (S) 1,835 3.9 -13.6°
Maximum altitude 22:40:16 61° 258° (WSW) 888 2.7 -13.4°
Drops below altitude 10° 22:45:24 10° 339° (NNW) 2,353 5.8 -13.1°
Sets 22:47:46 0° 343° (NNW) 3,288 6.7 -13.0°
